Casper, WY

6:40 PM MDT on July 26, 2017 (GMT -0600)
Natrona County International

Weather History for KCPR - November, 2012

Change the Weather History Date:

Wednesday, November 7, 2012

  Actual Average Record
Temperature  
Mean Temperature 53 °F 37 °F  
Max Temperature 69 °F 50 °F 72 °F (1999)
Min Temperature 36 °F 25 °F 1 °F (1990)
Degree Days  
Heating Degree Days 12 28  
Month to date heating degree days 125 185  
Since 1 July heating degree days 896 1084  
Cooling Degree Days 0 0  
Month to date cooling degree days 0 0  
Year to date cooling degree days 697 422  
Growing Degree Days 6 (Base 50)    
Moisture  
Dew Point 23 °F    
Average Humidity 37    
Maximum Humidity 59    
Minimum Humidity 15    
Precipitation  
Precipitation 0.00 in 0.03 in 0.73 in (1983)
Month to date precipitation 0.00 0.21  
Year to date precipitation 7.00 11.48  
Snow  
Snow 0.00 in 0.40 in - ()
Month to date snowfall 0.0 2.2  
Since 1 July snowfall 5.2 11.4  
Since 1 September snowfall 5.2 11.4  
Snow Depth 0.00 in    
Sea Level Pressure  
Sea Level Pressure 29.88 in    
Wind  
Wind Speed 16 mph (SW)    
Max Wind Speed 28 mph    
Max Gust Speed 38 mph    
Visibility 10 miles    
Events      
T = Trace of Precipitation, MM = Missing Value Source: NWS Daily Summary

Daily Weather History Graph

Daily Weather History Graph

Search for Another Location

Airport or City:

Trip Planner

Search our weather history database for the weather conditions in past years. The results will help you decide how hot, cold, wet, or windy it might be!

Date:

Astronomy

Nov. 07, 2012 Rise Set
Actual Time 6:48 AM MST 4:50 PM MST
Civil Twilight 6:18 AM MST 5:19 PM MST
Nautical Twilight 5:44 AM MST 5:53 PM MST
Astronomical Twilight 5:11 AM MST 6:26 PM MST
Moon No Moon Rise 1:09 PM MST (11/7)
Length of Visible Light 11h 01m
Length of Day
10h 01m
Last Quarter, 42% of the Moon is Illuminated
Nov 7
Last Quarter
Nov 13
New
Nov 20
First Quarter
Nov 28
Full
Dec 6
Last Quarter

Hourly Weather History & Observations

Time (MST) Temp. Windchill Dew Point Humidity Pressure Visibility Wind Dir Wind Speed Gust Speed Precip Events Conditions
12:53 AM 46.9 °F - 28.0 °F 48% 30.00 in 10.0 mi SW 15.0 mph - N/A   Clear
1:53 AM 43.0 °F 37.2 °F 27.0 °F 53% 30.00 in 10.0 mi SSW 10.4 mph - N/A   Clear
2:53 AM 44.1 °F 40.1 °F 26.1 °F 49% 29.96 in 10.0 mi WSW 6.9 mph - N/A   Clear
3:53 AM 46.9 °F - 27.0 °F 46% 29.94 in 10.0 mi SW 16.1 mph - N/A   Clear
4:53 AM 45.0 °F 40.6 °F 26.1 °F 48% 29.99 in 10.0 mi WSW 8.1 mph - N/A   Clear
5:53 AM 46.9 °F - 26.1 °F 44% 29.99 in 10.0 mi SW 12.7 mph - N/A   Clear
6:53 AM 44.1 °F 36.8 °F 25.0 °F 47% 30.01 in 10.0 mi SW 16.1 mph - N/A   Clear
7:53 AM 51.1 °F - 25.0 °F 36% 29.98 in 10.0 mi SSW 15.0 mph - N/A   Clear
8:53 AM 55.0 °F - 23.0 °F 29% 29.97 in 10.0 mi SW 23.0 mph 31.1 mph N/A   Clear
9:53 AM 57.9 °F - 23.0 °F 26% 29.94 in 10.0 mi SW 20.7 mph 28.8 mph N/A   Clear
10:53 AM 62.1 °F - 23.0 °F 22% 29.91 in 10.0 mi SW 27.6 mph 36.8 mph N/A   Clear
11:53 AM 64.9 °F - 21.0 °F 19% 29.87 in 10.0 mi WSW 18.4 mph 28.8 mph N/A   Clear
12:53 PM 68.0 °F - 21.9 °F 17% 29.79 in 10.0 mi SW 21.9 mph 31.1 mph N/A   Clear
1:53 PM 68.0 °F - 21.0 °F 17% 29.78 in 10.0 mi WSW 25.3 mph 33.4 mph N/A   Clear
2:53 PM 68.0 °F - 19.9 °F 16% 29.75 in 10.0 mi WSW 27.6 mph 36.8 mph N/A   Clear
3:53 PM 66.9 °F - 19.0 °F 16% 29.75 in 10.0 mi WSW 20.7 mph 29.9 mph N/A   Clear
4:53 PM 59.0 °F - 19.0 °F 21% 29.78 in 10.0 mi WSW 13.8 mph - N/A   Clear
5:53 PM 53.1 °F - 19.9 °F 27% 29.80 in 10.0 mi SW 12.7 mph - N/A   Clear
6:53 PM 51.1 °F - 21.0 °F 31% 29.82 in 10.0 mi WSW 13.8 mph - N/A   Clear
7:53 PM 51.1 °F - 21.9 °F 32% 29.80 in 10.0 mi SW 10.4 mph - N/A   Clear
8:51 PM 44.6 °F - 28.4 °F 53% 29.98 in 10.0 mi Calm Calm - N/A   Scattered Clouds
8:53 PM 51.1 °F - 21.9 °F 32% 29.80 in 10.0 mi WSW 13.8 mph - N/A   Clear
9:53 PM 48.9 °F - 21.0 °F 33% 29.79 in 10.0 mi SW 13.8 mph - N/A   Clear
10:53 PM 45.0 °F 41.8 °F 21.0 °F 39% 29.80 in 10.0 mi North 5.8 mph - N/A   Clear
11:53 PM 45.0 °F 40.1 °F 21.0 °F 39% 29.80 in 10.0 mi WSW 9.2 mph - N/A   Clear